Regional Weather Roundup
Issued by NWS

Home | Current Version | Previous Version | Graphics & Text | Print | Product List | Glossary On
Versions: 1 2 3 4 5 6 7 8 9 10 11 12 13 14 15 16 17 18 19 20 21 22 23 24 25 26 27 28 29 30 31 32 33 34 35 36 37 38 39 40 41 42 43 44 45 46 47 48 49 50
000
ASUS43 KMKX 282321
RWRWI

WISCONSIN REGIONAL WEATHER ROUNDUP
NATIONAL WEATHER SERVICE MILWAUKEE/SULLIVAN WI
600 PM CDT FRI APR 28 2017

NOTE: "FAIR" INDICATES FEW OR NO CLOUDS BELOW 12,000 FEET WITH NO
SIGNIFICANT WEATHER AND/OR OBSTRUCTIONS TO VISIBILITY.

WIZ001-002-006>008-014>016-023>028-290000-
NORTHWEST WISCONSIN

CITY           SKY/WX    TMP DP  RH WIND       PRES   REMARKS
SUPERIOR ARPT  CLOUDY    50  26  39 N9        29.95R
ASHLAND        CLOUDY    47  27  45 NW12      29.95R
HAYWARD        CLOUDY    48  25  40 VRB5      29.94S
SIREN          CLOUDY    49  25  38 CALM      29.95S
CUMBERLAND     MOSUNNY   45  27  49 NW7       29.96R
RICE LAKE      MOSUNNY   48  30  49 N7        29.96R
CHETEK         MOSUNNY   46  30  54 N9        29.95S
LADYSMITH      MOSUNNY   47  29  49 NW5       29.95S
EAU CLAIRE     CLOUDY    49  29  46 N9        29.93R
MENOMONIE      CLOUDY    49  31  50 NW8       29.94S
NEW RICHMOND   MOSUNNY   48  28  45 NE5       29.97R
OSCEOLA        CLOUDY    48  29  48 N3        29.99R
$$

WIZ003>005-009-010-017-018-290000-
NORTH CENTRAL WISCONSIN

CITY           SKY/WX    TMP DP  RH WIND       PRES   REMARKS
MANITOWISH WTR CLOUDY    38  29  70 W6        29.94R WCI  34
ARBOR VITAE    CLOUDY    39  28  64 NW9       29.94R WCI  33
WOODRUFF       CLOUDY    39  28  64 NW9       29.94R WCI  33
RHINELANDER    CLOUDY    43  28  55 W8        29.93R
EAGLE RIVER    MOSUNNY   37  26  62 NW12      29.94R WCI  30
LAND O LAKES   CLOUDY    38  26  63 W6        29.96R WCI  33
PHILLIPS       CLOUDY    42  27  54 NW6       29.93R
TOMAHAWK       CLOUDY    43  28  56 NW5       29.94R
MEDFORD        CLOUDY    44  30  59 NW8       29.92R
MERRILL        CLOUDY    46  30  55 N6        29.93S
$$

WIZ029-030-035-036-043>047-290000-
CENTRAL WISCONSIN

CITY           SKY/WX    TMP DP  RH WIND       PRES   REMARKS
WAUSAU         MOSUNNY   45  30  55 NW10      29.90F
MOSINEE        CLOUDY    45  32  61 N10       29.92F
MARSHFIELD     MOSUNNY   46  31  55 N10       29.91R
STEVENS POINT  PTSUNNY   46  29  53 NW8       29.92R
WAUPACA        PTSUNNY   50  33  50 NW7       29.92S
WAUTOMA        CLOUDY    49  33  54 N7        29.91R
WISC RAPIDS    PTSUNNY   49  31  49 N7        29.93R
CAMP DOUGLAS   CLOUDY    49  34  55 NW7       29.92R
$$

WIZ011>013-019>022-031-037>040-048>050-290000-
NORTHEAST WISCONSIN

CITY           SKY/WX    TMP DP  RH WIND       PRES   REMARKS
ANTIGO         CLOUDY    43  30  59 NW7       29.92S
SHAWANO        CLOUDY    50  32  49 NW6       29.93R
OCONTO         NOT AVBL
STURGEON BAY   CLOUDY    45  36  70 SE8       29.93R
GREEN BAY      CLOUDY    51  37  58 W7        29.92S
MANITOWOC      CLOUDY    42  36  79 E5        29.93F
APPLETON       PTSUNNY   48  30  49 N8        29.89S
CLINTONVILLE   MOSUNNY   48  30  49 NW7       29.91S
OSHKOSH        CLOUDY    50  35  56 CALM      29.90S
$$

WIZ032>034-041-042-053>061-290000-
SOUTHWEST WISCONSIN

CITY           SKY/WX    TMP DP  RH WIND       PRES   REMARKS
LA CROSSE      CLOUDY    49  33  54 N8        29.95R
SPARTA         CLOUDY    47  34  59 N6        29.95R
VIROQUA        CLOUDY    46  34  64 N5        29.93R
BOSCOBEL       LGT RAIN  48  42  80 NW5       29.93R
PRAIRIE DU CHI LGT RAIN  45  39  79 N5        29.93R
PLATTEVILLE    CLOUDY    46  45  94 NE5       29.91R
$$

WIZ056-057-062-063-064-067-068-290000-
SOUTH CENTRAL WISCONSIN

CITY           SKY/WX    TMP DP  RH WIND       PRES   REMARKS
REEDSBURG      LGT RAIN  47  36  64 N5        29.91R
BARABOO/DELLS  LGT RAIN  47  38  73 CALM      29.91R
LONE ROCK      LGT RAIN  47  40  76 NE3       29.94R
MINERAL POINT  LGT RAIN  46  43  87 N6        29.90R
MADISON        LGT RAIN  47  39  74 NE3       29.90R
MIDDLETON      CLOUDY    48  42  80 E3        29.91R
WATERTOWN      LGT RAIN  48  42  81 N3        29.90R
MONROE         CLOUDY    45  41  87 NE10      29.89S
JANESVILLE     CLOUDY    52  43  71 N6        29.89R
$$

WIZ051-052-058>065-066-070>072-290000-
SOUTHEAST WISCONSIN

CITY           SKY/WX    TMP DP  RH WIND       PRES   REMARKS
MILWAUKEE      CLOUDY    47  40  76 CALM      29.90R
WAUKESHA       CLOUDY    48  39  71 NE8       29.91R
MILWAUKEE/TIMM CLOUDY    46  36  66 NE5       29.91R
RACINE         CLOUDY    46  39  76 E3        29.92R
KENOSHA        CLOUDY    47  40  76 NE6       29.90R
FOND DU LAC    LGT RAIN  51  36  56 N3        29.91R
SHEBOYGAN      CLOUDY    46  40  79 SE5       29.92R
WEST BEND      LGT RAIN  46  41  81 CALM      29.91R
JUNEAU         LGT RAIN  48  39  71 CALM      29.92R
$$

LSZ147-162-290000-
LAKE SUPERIOR

STATION/POSITION TIME  TEMP    WIND        PRES    WAVE
                       AIR SEA DIR/SP/G            HT/PER
                 (UTC) (F)     (DEG/KT/KT) (MB)    (FT/S)
DEVILS ISLAND    2300   38      10/  8/  9 1015.6R
SAXON HARBOR     2230   43     300/  3/  8 1014.2R
$$

LMZ867-665-643>646-290000-
LAKE MICHIGAN

STATION/POSITION TIME  TEMP    WIND        PRES    WAVE
                       AIR SEA DIR/SP/G            HT/PER
                 (UTC) (F)     (DEG/KT/KT) (MB)    (FT/S)
CHAMBERS ISLAND  2240   47     160/  5/  9 1013.2R
N MID LAKE BUOY  2150   38 37  190/ 12/ 14 1015.1F   2/ 6
NORTHPORT PIER   2240   41     160/  5/ 10 1013.9R
KEWAUNEE LAKESHO 2254   41     160/ 10/ 12 1013.3R
SHEBOYGAN LAKESH 2300   40      90/  5/  5 1013.8R
PORT WASHINGTON  2240   42      40/  3/  4 1013.9R
MILWAUKEE LAKESH 2300   42      30/  4/  5   N/A
S MID LAKE BUOY  2250   42 42   50/  8/ 10 1012.6F   0
KENOSHA   LAKESH 2300   44      40/  3/  4 1012.9
$$

TC  - TEMPERATURE IN CELSIUS
VSB - VISIBILITY IN STATUTE MILES
WCI - WIND CHILL INDEX
HX  - HEAT INDEX





USA.gov is the U.S. government's official web portal to all federal, state and local government web resources and services.